Regional Weather Roundup
Issued by NWS

Home | Current Version | Previous Version | Graphics & Text | Print | Product List | Glossary On
Versions: 1 2 3 4 5 6 7 8 9 10 11 12 13 14 15 16 17 18 19 20 21 22 23 24 25 26 27 28 29 30 31 32 33 34 35 36 37 38 39 40 41 42 43 44 45 46 47 48 49 50
000
ASUS45 KCYS 260510
RWRWY

WYOMING REGIONAL WEATHER ROUNDUP
NATIONAL WEATHER SERVICE CHEYENNE WY
1000 PM MST TUE NOV 25 2014

NOTE:  "FAIR" INDICATES FEW OR NO CLOUDS BELOW 12,000 FEET
WITH NO SIGNIFICANT WEATHER AND/OR OBSTRUCTIONS TO VISIBILITY.

WYZ001-260600-
YELLOWSTONE NATIONAL PARK

CITY           SKY/WX    TMP DP  RH WIND       PRES   REMARKS
LK YELLOWSTONE   N/A     30  26  85 CALM      30.07R
W YELLOWSTONE  NOT AVBL

$$
WYZ002>013-054>058-071-098>099-260600-
NORTHERN WYOMING

CITY           SKY/WX    TMP DP  RH WIND       PRES   REMARKS
JACKSON        CLOUDY    37  36  93 SW12G21   30.06S WCI  30
CODY           CLOUDY    25  21  86 N3        30.14R
GREYBULL       CLOUDY    30  25  81 W22G32    30.13R WCI  17
WORLAND        LGT SNOW  28  26  92 W7        30.16R FOG     WCI  21
SHERIDAN       CLOUDY    30  23  75 NW18      30.13R WCI  18
BUFFALO        LGT SNOW  26  22  84 NW16G23   30.10R FOG     WCI  14
GILLETTE       CLOUDY    27  24  89 NW18      30.08R WCI  14
HULETT           N/A    N/A N/A N/A MISG        N/A
NEWCASTLE      CLOUDY    30  27  86 NW17G29   30.03R WCI  18

$$
WYZ014>020-022>026-101>103-260600-
CENTRAL WYOMING

CITY           SKY/WX    TMP DP  RH WIND       PRES   REMARKS
BIG PINEY      CLOUDY   N/A N/A N/A SE3       30.09S
PINEDALE       LGT SNOW  30  30 100 CALM      30.11R
DUBOIS         CLOUDY    32  30  93 N9        30.00S WCI  24
LANDER         CLOUDY    30  28  92 NW3       30.09R
RIVERTON       LGT SNOW  27  23  85 N6        30.10R FOG     WCI  20
CASPER         LGT SNOW  25  21  85 E3        30.13R VSB 1
DOUGLAS        LGT SNOW N/A N/A N/A NW16      30.11R

$$
WYZ021-027>030-104>119-260600-
SOUTHERN WYOMING

CITY           SKY/WX    TMP DP  RH WIND       PRES   REMARKS
EVANSTON       CLOUDY    35  32  88 W24G32    30.24R WCI  23
FORT BRIDGER   CLOUDY    37  34  88 W28G37    30.22F WCI  25
ROCK SPRINGS   CLOUDY    36  30  79 W29G41    30.12R WCI  23
DIXON          CLOUDY    38  30  74 W16G25    30.18S WCI  28
RAWLINS        CLOUDY    35  29  78 W23G35    30.04F WCI  23
SARATOGA       CLOUDY    36  30  80 W26G36    30.07R WCI  23
LARAMIE        FLURRIES  25  23  92 N14       30.01R WCI  13
CHEYENNE       CLOUDY    27  22  81 N25G33    30.02R HAZE    WCI  12
TORRINGTON     CLOUDY    30  25  81 NW23G33   30.05R WCI  17
PINE BLUFFS    LGT SNOW  30  28  93 N21G26    30.05R WCI  17

$$


USA.gov is the U.S. government's official web portal to all federal, state and local government web resources and services.